Weather History for Stevens Point, WI

Change the Weather History Date:

Sunday, December 9, 2012

  Actual Average Record
Temperature  
Mean Temperature 26 °F -  
Max Temperature 29 °F 28 °F 47 °F (1990)
Min Temperature 24 °F 14 °F -13 °F (1958)
Degree Days  
Heating Degree Days 38    
Moisture  
Dew Point 24 °F    
Average Humidity 88    
Maximum Humidity 98    
Minimum Humidity 78    
Precipitation  
Precipitation 0.03 in - - ()
Sea Level Pressure  
Sea Level Pressure 29.93 in    
Wind  
Wind Speed 9 mph (ENE)    
Max Wind Speed 16 mph    
Max Gust Speed 23 mph    
Visibility 6 miles    
Events Snow    
Averages and records for this station are not official NWS values.
T = Trace of Precipitation, MM = Missing Value Source: NWS Daily Summary

Daily Weather History Graph

Daily Weather History Graph

Search for Another Location

Airport:

Trip Planner

Search our weather history database for the weather conditions in past years. The results will help you decide how hot, cold, wet, or windy it might be!

Date:

Astronomy

Dec. 09, 2012 Rise Set
Actual Time 7:23 AM CST 4:18 PM CST
Civil Twilight 6:50 AM CST 4:51 PM CST
Nautical Twilight 6:13 AM CST 5:28 PM CST
Astronomical Twilight 5:37 AM CST 6:03 PM CST
Moon 2:48 AM CST (12/9) 1:31 PM CST (12/9)
Length of Visible Light 10h 01m
Length of Day
8h 54m
Waning Crescent, 18% of the Moon is Illuminated
Dec 9
Waning Crescent
Dec 13
New
Dec 19
First Quarter
Dec 28
Full
Jan 4
Last Quarter

Hourly Weather History & Observations

Time (CST) Temp. Windchill Dew Point Humidity Pressure Visibility Wind Dir Wind Speed Gust Speed Precip Events Conditions
12:15 AM 25.3 °F 16.7 °F 20.5 °F 82% 30.10 in 10.0 mi East 8.1 mph - N/A   Clear
12:35 AM 25.3 °F 17.6 °F 20.1 °F 81% 30.10 in 10.0 mi East 6.9 mph - N/A   Clear
12:55 AM 25.5 °F 17.8 °F 20.1 °F 80% 30.10 in 10.0 mi East 6.9 mph - N/A   Clear
1:15 AM 25.7 °F 19.0 °F 19.9 °F 79% 30.10 in 10.0 mi East 5.8 mph - N/A   Clear
1:35 AM 25.5 °F 19.9 °F 20.1 °F 80% 30.12 in 10.0 mi East 4.6 mph - N/A   Clear
1:55 AM 24.8 °F 17.9 °F 19.6 °F 81% 30.12 in 10.0 mi NE 5.8 mph - N/A   Scattered Clouds
2:15 AM 25.2 °F 17.3 °F 20.1 °F 81% 30.12 in 10.0 mi NE 6.9 mph - N/A   Scattered Clouds
2:35 AM 25.0 °F 16.3 °F 20.3 °F 82% 30.11 in 10.0 mi NE 8.1 mph - N/A   Mostly Cloudy
2:55 AM 25.2 °F 15.1 °F 20.3 °F 82% 30.09 in 10.0 mi ENE 10.4 mph - N/A   Scattered Clouds
3:15 AM 25.2 °F 14.4 °F 20.3 °F 82% 30.09 in 10.0 mi East 11.5 mph - N/A   Scattered Clouds
3:35 AM 25.2 °F 15.7 °F 20.3 °F 82% 30.07 in 10.0 mi ENE 9.2 mph - N/A   Mostly Cloudy
3:55 AM 25.3 °F 15.3 °F 20.3 °F 81% 30.06 in 10.0 mi ENE 10.4 mph - N/A   Scattered Clouds
4:15 AM 26.2 °F 15.8 °F 20.8 °F 80% 30.06 in 10.0 mi East 11.5 mph - N/A   Mostly Cloudy
4:35 AM 27.0 °F 17.3 °F 21.2 °F 79% 30.06 in 10.0 mi East 10.4 mph - N/A   Overcast
4:55 AM 27.3 °F 19.9 °F 21.4 °F 78% 30.07 in 10.0 mi ENE 6.9 mph - N/A   Overcast
5:15 AM 27.3 °F 19.1 °F 21.6 °F 79% 30.06 in 10.0 mi ENE 8.1 mph - N/A   Overcast
5:35 AM 27.1 °F 20.7 °F 21.6 °F 80% 30.07 in 10.0 mi ENE 5.8 mph - N/A   Overcast
5:55 AM 27.3 °F 19.1 °F 21.7 °F 80% 30.07 in 10.0 mi East 8.1 mph - N/A   Overcast
6:15 AM 27.3 °F 18.4 °F 21.7 °F 80% 30.07 in 10.0 mi ENE 9.2 mph - N/A   Overcast
6:35 AM 27.3 °F 19.1 °F 22.1 °F 81% 30.07 in 10.0 mi ENE 8.1 mph - N/A   Overcast
6:55 AM 27.5 °F 20.2 °F 22.1 °F 80% 30.06 in 10.0 mi ENE 6.9 mph - N/A   Overcast
7:15 AM 27.3 °F 20.9 °F 22.1 °F 81% 30.06 in 10.0 mi ENE 5.8 mph - N/A   Overcast
7:35 AM 27.5 °F 18.6 °F 22.5 °F 81% 30.05 in 10.0 mi East 9.2 mph - N/A   Overcast
8:35 AM 29.1 °F 17.5 °F 23.0 °F 78% 30.03 in 10.0 mi East 16.1 mph 23.0 mph N/A   Overcast
8:55 AM 29.1 °F 17.9 °F 23.2 °F 78% 30.03 in 10.0 mi East 15.0 mph 18.4 mph N/A   Overcast
9:15 AM 29.3 °F 18.6 °F 23.4 °F 78% 30.02 in 10.0 mi East 13.8 mph 21.9 mph N/A   Overcast
9:35 AM 29.3 °F 20.2 °F 23.5 °F 79% 30.02 in 10.0 mi East 10.4 mph - N/A Snow Light Snow
9:55 AM 29.3 °F 19.6 °F 23.7 °F 80% 30.01 in 10.0 mi East 11.5 mph 18.4 mph N/A   Overcast
10:15 AM 29.1 °F 18.4 °F 24.3 °F 82% 30.00 in 4.0 mi East 13.8 mph 20.7 mph N/A Snow Light Snow
10:35 AM 28.8 °F 17.9 °F 24.8 °F 85% 30.00 in 3.0 mi ENE 13.8 mph 17.3 mph N/A Snow Light Snow
10:55 AM 28.4 °F 18.5 °F 25.3 °F 88% 29.99 in 2.0 mi ENE 11.5 mph 17.3 mph N/A Snow Light Snow
11:15 AM 28.4 °F 19.1 °F 25.7 °F 90% 29.97 in 2.0 mi ENE 10.4 mph 17.3 mph N/A Snow Light Snow
11:35 AM 28.4 °F 19.7 °F 26.1 °F 91% 29.95 in 1.5 mi ENE 9.2 mph 17.3 mph N/A Snow Light Snow
11:55 AM 28.4 °F 18.5 °F 26.2 °F 92% 29.94 in 1.0 mi ENE 11.5 mph 18.4 mph N/A Snow Light Snow
12:15 PM 28.4 °F 19.1 °F 26.4 °F 92% 29.93 in 2.0 mi ENE 10.4 mph - N/A Snow Light Snow
12:35 PM 28.2 °F 18.3 °F 26.1 °F 92% 29.91 in 1.2 mi ENE 11.5 mph - N/A Snow Light Snow
12:55 PM 28.2 °F 17.7 °F 26.1 °F 92% 29.90 in 1.5 mi ENE 12.7 mph - N/A Snow Light Snow
1:15 PM 28.0 °F 17.0 °F 26.1 °F 92% 29.87 in 1.5 mi ENE 13.8 mph - N/A Snow Light Snow
1:35 PM 28.4 °F 19.1 °F 26.2 °F 92% 29.87 in 2.5 mi NE 10.4 mph - N/A Snow Light Snow
1:55 PM 28.4 °F 18.0 °F 26.1 °F 91% 29.86 in 2.0 mi ENE 12.7 mph - N/A Snow Light Snow
2:15 PM 28.4 °F 18.5 °F 26.1 °F 91% 29.85 in 2.5 mi ENE 11.5 mph - N/A Snow Light Snow
2:35 PM 28.4 °F 18.0 °F 26.4 °F 92% 29.83 in 2.5 mi ENE 12.7 mph 17.3 mph N/A Snow Light Snow
2:55 PM 28.4 °F 19.1 °F 26.4 °F 92% 29.83 in 1.5 mi NE 10.4 mph - N/A Snow Light Snow
3:15 PM 28.4 °F 18.0 °F 26.6 °F 93% 29.82 in 1.8 mi ENE 12.7 mph 16.1 mph N/A Snow Light Snow
3:35 PM 28.4 °F 19.7 °F 26.6 °F 93% 29.83 in 1.8 mi ENE 9.2 mph - N/A Snow Light Snow
3:55 PM 28.4 °F 19.1 °F 26.6 °F 93% 29.81 in 1.2 mi ENE 10.4 mph 16.1 mph N/A Snow Light Snow
4:15 PM 28.4 °F 19.1 °F 26.8 °F 94% 29.80 in 1.2 mi ENE 10.4 mph - N/A Snow Light Snow
4:35 PM 28.4 °F 18.5 °F 27.0 °F 94% 29.79 in 2.0 mi ENE 11.5 mph - N/A Snow Light Snow
4:55 PM 28.4 °F 19.7 °F 27.1 °F 95% 29.80 in 1.5 mi ENE 9.2 mph - N/A Snow Light Snow
5:15 PM 28.4 °F 19.7 °F 27.3 °F 96% 29.79 in 2.0 mi NE 9.2 mph - N/A Snow Light Snow
5:35 PM 28.4 °F 21.2 °F 27.1 °F 95% 29.80 in 3.0 mi NE 6.9 mph - N/A Snow Light Snow
5:55 PM 28.6 °F 21.5 °F 27.5 °F 96% 29.80 in 2.5 mi NE 6.9 mph - 0.01 in   Overcast
6:15 PM 28.8 °F 20.9 °F 27.9 °F 96% 29.79 in 1.8 mi NE 8.1 mph - 0.01 in   Overcast
6:55 PM 28.4 °F 20.4 °F 27.9 °F 98% 29.79 in 2.5 mi NE 8.1 mph - 0.02 in   Overcast
7:15 PM 28.4 °F 20.4 °F 27.9 °F 98% 29.78 in 2.5 mi NE 8.1 mph - N/A   Overcast
7:35 PM 28.4 °F 19.7 °F 27.5 °F 96% 29.78 in 1.5 mi NNE 9.2 mph - N/A   Overcast
7:55 PM 28.0 °F 18.6 °F 27.0 °F 96% 29.76 in 3.0 mi NE 10.4 mph - N/A   Overcast
8:15 PM 27.9 °F 19.1 °F 26.6 °F 95% 29.75 in 4.0 mi NE 9.2 mph - N/A   Overcast
8:35 PM 27.9 °F 19.8 °F 26.6 °F 95% 29.74 in 3.0 mi NE 8.1 mph - N/A Snow Light Snow
8:55 PM 27.5 °F 19.3 °F 26.4 °F 96% 29.74 in 5.0 mi NE 8.1 mph - N/A   Overcast
9:15 PM 27.5 °F 18.6 °F 26.2 °F 95% 29.74 in 7.0 mi NE 9.2 mph - N/A   Overcast
9:35 PM 27.5 °F 18.0 °F 26.1 °F 94% 29.73 in 10.0 mi NE 10.4 mph - N/A   Overcast
9:55 PM 27.5 °F 18.6 °F 25.7 °F 93% 29.73 in 10.0 mi NE 9.2 mph - N/A   Overcast
10:15 PM 27.3 °F 18.4 °F 25.7 °F 94% 29.73 in 5.0 mi NE 9.2 mph - N/A Snow Light Snow
10:35 PM 27.3 °F 17.7 °F 25.7 °F 94% 29.73 in 7.0 mi NE 10.4 mph - N/A   Overcast
10:55 PM 27.0 °F 18.0 °F 25.3 °F 94% 29.72 in 10.0 mi NE 9.2 mph - N/A   Overcast
11:15 PM 27.0 °F 18.0 °F 25.3 °F 94% 29.71 in 7.0 mi NE 9.2 mph - N/A   Overcast